This demonstration page uses our WeatherBlox Daily Observations layout. Learn more.

Left ArrowRight Arrow

Hourly Observations for May 7, 2016

Temp ( °F °C ) Dew Point ( °F °C ) Humidity (%) Winds ( mph kmh ) Pressure ( in mb ) Visibility ( mi km ) Precip ( " mm )
12:53 am 00:53 Clear 49 9.4 46 7.8 90 90 N N/A 29.88 1012 10 16 N/A
1:53 am 01:53 Mostly Cloudy 47 8.3 44 6.7 90 90 N N/A 29.86 1011 10 16 N/A
2:53 am 02:53 Cloudy 51 10.6 47 8.3 86 86 N N/A 29.84 1010 10 16 N/A
3:53 am 03:53 Clear 48 8.9 46 7.8 93 93 N N/A 29.82 1010 10 16 N/A
4:53 am 04:53 Clear 47 8.3 46 7.8 97 97 N N/A 29.81 1010 10 16 N/A
5:53 am 05:53 Mostly Cloudy 49 9.4 47 8.3 93 93 N N/A 29.80 1009 10 16 N/A
6:53 am 06:53 Sunny 48 8.9 46 7.8 93 93 N N/A 29.79 1009 10 16 N/A
7:53 am 07:53 Sunny 54 12.2 49 9.4 83 83 N N/A 29.79 1009 10 16 N/A
8:53 am 08:53 Sunny 60 15.6 49 9.4 67 67 WSW 7 11 29.78 1009 10 16 N/A
9:53 am 09:53 Sunny 63 17.2 50 10 63 63 WSW 10 17 29.76 1008 10 16 N/A
10:53 am 10:53 Sunny 65 18.3 53 11.7 66 66 W 5 7 29.77 1008 10 16 N/A
11:53 am 11:53 Partly Cloudy 74 23.3 55 12.8 52 52 W 9 15 29.76 1008 10 16 N/A
12:53 pm 12:53 Mostly Cloudy 75 23.9 55 12.8 50 50 W 15 24 29.74 1007 10 16 N/A
1:53 pm 13:53 Mostly Cloudy 73 22.8 55 12.8 53 53 W 13 20 29.75 1007 10 16 N/A
2:53 pm 14:53 Mostly Sunny 71 21.7 56 13.3 59 59 W 9 15 29.74 1007 10 16 N/A
3:53 pm 15:53 Sunny 73 22.8 58 14.4 59 59 SW 5 7 29.71 1006 10 16 N/A
4:53 pm 16:53 Sunny 78 25.6 57 13.9 48 48 W 17 28 29.71 1006 10 16 N/A
5:53 pm 17:53 Sunny 74 23.3 54 12.2 50 50 WNW 18 30 29.72 1006 10 16 N/A
6:53 pm 18:53 Sunny 73 22.8 57 13.9 57 57 WNW 13 20 29.72 1006 10 16 N/A
7:53 pm 19:53 Partly Cloudy 71 21.7 58 14.4 63 63 NW 18 30 29.74 1007 10 16 N/A
8:53 pm 20:53 Partly Cloudy 67 19.4 55 12.8 66 66 WNW 10 17 29.76 1008 10 16 N/A
9:53 pm 21:53 Mostly Cloudy 65 18.3 52 11.1 63 63 NNW 6 9 29.78 1008 10 16 N/A
10:53 pm 22:53 Cloudy with Nearby Thunderstorms 64 17.8 46 7.8 52 52 WNW 12 19 29.80 1009 10 16 N/A
11:20 pm 23:20 Cloudy 63 17.2 41 5 45 45 NW 10 17 29.80 1009 10 16 N/A
11:53 pm 23:53 Cloudy 61 16.1 38 3.3 43 43 NW 14 22 29.81 1009 10 16 N/A

Powered by AerisWeather